Location: Toronto
(43.6667°N, 79.4167°W)
Time: 08:02:12
(UTC-04:00)

X-37B - Visible Passes

Search period start: 18 June 2021 00:00
Search period end: 28 June 2021 00:00
Orbit: 386 x 389 km, 45.0° (Epoch: 10 June)

Date Brightness Start Highest point End Pass type
(mag) Time Alt. Az. Time Alt. Az. Time Alt. Az.
18 Jun 0.8 02:57:24 51° WNW 02:58:00 68° N 03:01:10 10° E visible
18 Jun 0.6 04:31:34 10° WNW 04:34:45 89° NNE 04:37:56 10° ESE visible
19 Jun 2.6 02:01:27 23° ENE 02:01:27 23° ENE 02:02:47 10° ENE visible
19 Jun 0.8 03:33:43 14° WNW 03:36:22 72° N 03:39:31 10° E visible
20 Jun 0.9 02:37:55 65° N 02:37:57 65° N 02:41:06 10° E visible
20 Jun 0.5 04:11:29 10° WNW 04:14:38 65° SSW 04:17:47 10° ESE visible
21 Jun 3.4 01:42:29 11° E 01:42:29 11° E 01:42:42 10° E visible
21 Jun 0.5 03:14:49 29° WNW 03:16:17 89° N 03:19:28 10° ESE visible
21 Jun 1.7 04:50:01 10° W 04:52:42 25° SSW 04:55:22 10° SSE visible
22 Jun 2.9 02:20:14 17° E 02:20:14 17° E 02:21:04 10° E visible
22 Jun 0.9 03:52:39 20° W 03:54:28 41° SSW 03:57:28 10° SE visible
22 Jun 2.0 22:04:06 10° SSW 22:06:27 19° SSE 22:08:47 10° E visible
22 Jun 2.0 23:39:36 10° WSW 23:41:15 28° WSW 23:41:15 28° WSW visible
23 Jun 2.3 04:32:12 15° SW 04:32:23 15° SW 04:34:17 10° S visible
23 Jun 0.7 22:41:21 10° SW 22:44:26 51° SSE 22:47:14 12° E visible
24 Jun 2.2 00:17:54 10° W 00:19:34 28° W 00:19:34 28° W visible
24 Jun 1.4 21:43:18 10° SW 21:46:11 31° SSE 21:49:03 10° E visible
24 Jun 0.6 23:19:29 10° W 23:22:40 80° N 23:24:24 24° ENE visible
25 Jun 3.3 00:56:15 10° WNW 00:56:42 13° WNW 00:56:42 13° WNW visible
25 Jun 0.5 22:21:07 10° WSW 22:24:18 77° SSE 22:27:28 10° ENE visible
25 Jun 0.9 23:57:51 10° W 00:01:00 66° N 00:01:00 66° N visible
26 Jun 0.9 22:59:26 10° W 23:02:36 68° N 23:05:06 15° ENE visible
27 Jun 2.7 00:36:10 10° WNW 00:37:22 21° WNW 00:37:22 21° WNW visible
27 Jun 0.7 22:01:01 10° W 22:04:12 80° N 22:07:23 10° ENE visible
27 Jun 0.7 23:37:47 10° WNW 23:40:58 73° N 23:41:21 62° ENE visible
